• In Hungary
  • List of Countries
  • For 7 days
  • Water Temperature
  • Satellite Maps
  • Weather Map
  • News
  • Weather Widgets
  • user-avatar
    Login

    Hourly Weather Naletkino

    Today, 25 April, Wednesday

    Time Temperature Precipitation Wind Pressure Humidity
    00:00 +6°C° 0 mm 2 mps 736 mmHg 91%
    01:00 +5°C° 0 mm 2 mps 735 mmHg 93%
    02:00 +5°C° 0 mm 2 mps 735 mmHg 95%
    03:00 +5°C° 0.1 mm 2 mps 735 mmHg 96%
    04:00 +5°C° 0.1 mm 2 mps 735 mmHg 96%
    05:00 +5°C° 0.1 mm 2 mps 735 mmHg 96%
    06:00 +6°C° 0 mm 2 mps 734 mmHg 91%
    07:00 +7°C° 0 mm 3 mps 734 mmHg 86%
    08:00 +8°C° 0 mm 3 mps 734 mmHg 81%
    09:00 +9°C° 0.2 mm 3 mps 734 mmHg 78%
    10:00 +10°C° 0.2 mm 4 mps 734 mmHg 74%
    11:00 +10°C° 0.2 mm 4 mps 734 mmHg 70%
    12:00 +10°C° 0.4 mm 4 mps 733 mmHg 70%
    13:00 +11°C° 0.4 mm 4 mps 733 mmHg 70%
    14:00 +11°C° 0.4 mm 4 mps 733 mmHg 70%
    15:00 +11°C° 0.1 mm 4 mps 733 mmHg 68%
    16:00 +11°C° 0.1 mm 3 mps 732 mmHg 66%
    17:00 +11°C° 0.1 mm 3 mps 732 mmHg 64%
    18:00 +10°C° 0 mm 3 mps 732 mmHg 70%
    19:00 +8°C° 0 mm 2 mps 732 mmHg 77%
    20:00 +7°C° 0 mm 2 mps 732 mmHg 83%
    21:00 +6°C° 0 mm 2 mps 732 mmHg 84%
    22:00 +6°C° 0 mm 2 mps 732 mmHg 85%
    23:00 +7°C° 0 mm 1 mps 731 mmHg 86%

    Tomorrow, 26 April, Thursday

    Time Temperature Precipitation Wind Pressure Humidity
    00:00 +7°C° 0.3 mm 1 mps 731 mmHg 88%
    01:00 +7°C° 0.3 mm 1 mps 731 mmHg 89%
    02:00 +7°C° 0.3 mm 1 mps 730 mmHg 90%
    03:00 +7°C° 0.4 mm 1 mps 730 mmHg 92%
    04:00 +6°C° 0.4 mm 2 mps 729 mmHg 94%
    05:00 +6°C° 0.4 mm 2 mps 728 mmHg 95%
    06:00 +6°C° 0.1 mm 2 mps 728 mmHg 94%
    07:00 +7°C° 0.1 mm 3 mps 728 mmHg 92%
    08:00 +8°C° 0.1 mm 3 mps 728 mmHg 90%
    09:00 +8°C° 0.3 mm 4 mps 728 mmHg 86%
    10:00 +9°C° 0.3 mm 5 mps 728 mmHg 81%
    11:00 +10°C° 0.3 mm 5 mps 729 mmHg 77%
    12:00 +9°C° 0.4 mm 6 mps 729 mmHg 78%
    13:00 +8°C° 0.4 mm 6 mps 730 mmHg 79%
    14:00 +8°C° 0.4 mm 6 mps 730 mmHg 80%
    15:00 +8°C° 0.1 mm 6 mps 731 mmHg 77%
    16:00 +8°C° 0.1 mm 6 mps 732 mmHg 74%
    17:00 +8°C° 0.1 mm 5 mps 732 mmHg 71%
    18:00 +7°C° 0 mm 4 mps 733 mmHg 75%
    19:00 +6°C° 0 mm 4 mps 734 mmHg 79%
    20:00 +5°C° 0 mm 3 mps 734 mmHg 83%
    21:00 +5°C° 0 mm 3 mps 735 mmHg 84%
    22:00 +5°C° 0 mm 3 mps 735 mmHg 85%
    23:00 +4°C° 0 mm 3 mps 736 mmHg 86%

    Day after tomorrow, 27 April, Friday

    Time Temperature Precipitation Wind Pressure Humidity
    00:00 +4°C° 0 mm 3 mps 736 mmHg 88%
    01:00 +3°C° 0 mm 3 mps 736 mmHg 90%
    02:00 +3°C° 0 mm 3 mps 736 mmHg 92%
    03:00 +3°C° 0 mm 3 mps 737 mmHg 93%
    04:00 +3°C° 0 mm 3 mps 737 mmHg 94%
    05:00 +3°C° 0 mm 3 mps 738 mmHg 95%
    06:00 +4°C° 0 mm 3 mps 738 mmHg 89%
    07:00 +5°C° 0 mm 3 mps 738 mmHg 83%
    08:00 +8°C° 0 mm 3 mps 739 mmHg 77%
    09:00 +8°C° 0.2 mm 4 mps 739 mmHg 71%
    10:00 +10°C° 0.2 mm 4 mps 739 mmHg 65%
    11:00 +11°C° 0.2 mm 4 mps 739 mmHg 59%
    12:00 +12°C° 0.2 mm 4 mps 739 mmHg 55%
    13:00 +12°C° 0.2 mm 4 mps 739 mmHg 51%
    14:00 +13°C° 0.2 mm 4 mps 739 mmHg 47%
    15:00 +13°C° 0 mm 3 mps 739 mmHg 47%
    16:00 +13°C° 0 mm 3 mps 739 mmHg 47%
    17:00 +14°C° 0 mm 2 mps 739 mmHg 48%
    18:00 +12°C° 0 mm 2 mps 739 mmHg 54%
    19:00 +10°C° 0 mm 1 mps 739 mmHg 60%
    20:00 +9°C° 0 mm 1 mps 740 mmHg 66%
    21:00 +8°C° 0 mm 1 mps 740 mmHg 68%
    22:00 +7°C° 0 mm 1 mps 740 mmHg 70%
    23:00 +7°C° 0 mm 1 mps 740 mmHg 73%

    28 April, Saturday

    Time Temperature Precipitation Wind Pressure Humidity
    00:00 +7°C° 0.1 mm 1 mps 740 mmHg 75%
    01:00 +6°C° 0.1 mm 1 mps 741 mmHg 78%
    02:00 +5°C° 0.1 mm 2 mps 741 mmHg 80%
    03:00 +5°C° 0 mm 2 mps 741 mmHg 83%
    04:00 +5°C° 0 mm 2 mps 741 mmHg 86%
    05:00 +4°C° 0 mm 2 mps 741 mmHg 88%
    06:00 +6°C° 0.1 mm 2 mps 742 mmHg 85%
    07:00 +7°C° 0.1 mm 3 mps 742 mmHg 81%
    08:00 +8°C° 0.1 mm 3 mps 742 mmHg 77%
    09:00 +8°C° 0.4 mm 4 mps 743 mmHg 72%
    10:00 +10°C° 0.4 mm 4 mps 743 mmHg 66%
    11:00 +11°C° 0.4 mm 4 mps 743 mmHg 60%
    12:00 +12°C° 0.1 mm 4 mps 743 mmHg 55%
    13:00 +12°C° 0.1 mm 5 mps 744 mmHg 51%
    14:00 +13°C° 0.1 mm 5 mps 744 mmHg 46%
    15:00 +13°C° 0 mm 4 mps 744 mmHg 46%
    16:00 +13°C° 0 mm 4 mps 744 mmHg 47%
    17:00 +12°C° 0 mm 3 mps 744 mmHg 47%
    18:00 +11°C° 0 mm 3 mps 744 mmHg 54%
    19:00 +9°C° 0 mm 2 mps 745 mmHg 60%
    20:00 +8°C° 0 mm 1 mps 745 mmHg 67%
    21:00 +8°C° 0 mm 1 mps 745 mmHg 70%
    22:00 +7°C° 0 mm 1 mps 745 mmHg 72%
    23:00 +7°C° 0 mm 1 mps 746 mmHg 75%

    29 April, Sunday

    Time Temperature Precipitation Wind Pressure Humidity
    00:00 +6°C° 0 mm 1 mps 746 mmHg 77%
    01:00 +6°C° 0 mm 1 mps 746 mmHg 78%
    02:00 +6°C° 0 mm 1 mps 746 mmHg 80%
    03:00 +6°C° 0 mm 1 mps 746 mmHg 79%
    04:00 +5°C° 0 mm 2 mps 746 mmHg 79%
    05:00 +5°C° 0 mm 2 mps 746 mmHg 79%
    06:00 +6°C° 0.8 mm 2 mps 745 mmHg 81%
    07:00 +7°C° 0.8 mm 3 mps 745 mmHg 83%
    08:00 +7°C° 0.8 mm 3 mps 745 mmHg 85%
    09:00 +9°C° 1.1 mm 3 mps 744 mmHg 83%
    10:00 +10°C° 1.1 mm 4 mps 744 mmHg 80%
    11:00 +11°C° 1.1 mm 4 mps 743 mmHg 78%
    12:00 +13°C° 0.1 mm 4 mps 743 mmHg 73%
    13:00 +15°C° 0.1 mm 4 mps 742 mmHg 68%
    14:00 +18°C° 0.1 mm 4 mps 742 mmHg 63%
    15:00 +18°C° 0.1 mm 3 mps 742 mmHg 64%
    16:00 +18°C° 0.1 mm 3 mps 741 mmHg 64%
    17:00 +18°C° 0.1 mm 2 mps 741 mmHg 64%
    18:00 +16°C° 0 mm 2 mps 741 mmHg 70%
    19:00 +14°C° 0 mm 2 mps 741 mmHg 76%
    20:00 +12°C° 0 mm 2 mps 741 mmHg 81%
    21:00 +12°C° 0 mm 2 mps 741 mmHg 83%
    22:00 +10°C° 0 mm 2 mps 742 mmHg 84%
    23:00 +10°C° 0 mm 1 mps 742 mmHg 86%

    30 April, Monday

    Time Temperature Precipitation Wind Pressure Humidity
    00:00 +10°C° 0 mm 1 mps 742 mmHg 87%
    01:00 +9°C° 0 mm 1 mps 742 mmHg 87%
    02:00 +9°C° 0 mm 1 mps 742 mmHg 88%
    03:00 +9°C° 0 mm 1 mps 742 mmHg 88%
    04:00 +8°C° 0 mm 1 mps 742 mmHg 88%
    05:00 +8°C° 0 mm 1 mps 742 mmHg 88%
    06:00 +11°C° 0 mm 1 mps 742 mmHg 80%
    07:00 +13°C° 0 mm 1 mps 742 mmHg 72%
    08:00 +15°C° 0 mm 1 mps 742 mmHg 64%
    09:00 +18°C° 0 mm 1 mps 742 mmHg 59%
    10:00 +19°C° 0 mm 2 mps 742 mmHg 54%
    11:00 +20°C° 0 mm 2 mps 742 mmHg 49%
    12:00 +21°C° 0.3 mm 2 mps 741 mmHg 52%
    13:00 +21°C° 0.3 mm 3 mps 741 mmHg 54%
    14:00 +22°C° 0.3 mm 3 mps 740 mmHg 56%
    15:00 +21°C° 0.9 mm 3 mps 740 mmHg 62%
    16:00 +20°C° 0.9 mm 2 mps 739 mmHg 69%
    17:00 +20°C° 0.9 mm 2 mps 739 mmHg 75%
    18:00 +18°C° 0.1 mm 2 mps 738 mmHg 76%
    19:00 +17°C° 0.1 mm 3 mps 738 mmHg 76%
    20:00 +16°C° 0.1 mm 3 mps 738 mmHg 76%
    21:00 +14°C° 0 mm 4 mps 738 mmHg 76%
    22:00 +14°C° 0 mm 4 mps 737 mmHg 76%
    23:00 +13°C° 0 mm 4 mps 737 mmHg 76%
    Show more